Change the Weather History Date:

Saturday, June 8, 2013

  Actual Average Record
Temperature  
Mean Temperature 62 °F -  
Max Temperature 71 °F 88 °F 100 °F (2006)
Min Temperature 53 °F 62 °F 53 °F (2011)
Degree Days  
Heating Degree Days 3    
Growing Degree Days 12 (Base 50)    
Moisture  
Dew Point 51 °F    
Average Humidity 66    
Maximum Humidity 88    
Minimum Humidity 46    
Precipitation  
Precipitation 0.00 in - - ()
Sea Level Pressure  
Sea Level Pressure 30.07 in    
Wind  
Wind Speed 7 mph ()    
Max Wind Speed 14 mph    
Max Gust Speed 18 mph    
Visibility 6.2 miles    
Events      
Averages and records for this station are not official NWS values.
T = Trace of Precipitation, MM = Missing Value Source: Averaged Metar Reports

Daily Weather History Graph

Daily Weather History Graph

Search for Another Location

Airport or City:

Trip Planner

Search our weather history database for the weather conditions in past years. The results will help you decide how hot, cold, wet, or windy it might be!

Date:

Astronomy

Jun. 08, 2013 Rise Set
Actual Time 7:02 AM CEST 9:41 PM CEST
Civil Twilight 6:31 AM CEST 10:11 PM CEST
Nautical Twilight 5:53 AM CEST 10:50 PM CEST
Astronomical Twilight 5:10 AM CEST 11:33 PM CEST
Moon 6:57 AM CEST (6/8) 9:33 PM CEST (6/8)
Length of Visible Light 15h 40m
Length of Day
14h 38m
Waning Crescent, 0% of the Moon is Illuminated
Jun 8
Waning Crescent
Jun 8
New
Jun 16
First Quarter
Jun 23
Full
Jun 30
Last Quarter

Hourly Weather History & Observations

Time (CEST) Temp. Dew Point Humidity Pressure Visibility Wind Dir Wind Speed Gust Speed Precip Events Conditions
12:00 AM 62.6 °F 53.6 °F 72% 30.09 in 6.2 mi SW 8.1 mph - N/A   Partly Cloudy
1:00 AM 62.6 °F 53.6 °F 72% 30.09 in 6.2 mi West 5.8 mph - N/A   Partly Cloudy
2:00 AM 59.0 °F 50.0 °F 72% 30.09 in - WSW 4.6 mph - N/A   Clear
3:00 AM 57.2 °F 48.2 °F 72% 30.09 in - West 6.9 mph - N/A   Clear
4:00 AM 55.4 °F 50.0 °F 82% 30.09 in - West 5.8 mph - N/A   Clear
5:00 AM 55.4 °F 48.2 °F 77% 30.06 in - West 4.6 mph - N/A   Clear
6:00 AM 53.6 °F 48.2 °F 82% 30.06 in - WSW 5.8 mph - N/A   Clear
7:00 AM 53.6 °F 48.2 °F 82% 30.06 in 6.2 mi SW 5.8 mph - N/A   Scattered Clouds
8:00 AM 55.4 °F 51.8 °F 88% 30.09 in 6.2 mi West 4.6 mph - N/A   Partly Cloudy
9:00 AM 59.0 °F 51.8 °F 77% 30.09 in 6.2 mi West 6.9 mph - N/A   Partly Cloudy
10:00 AM 62.6 °F 51.8 °F 68% 30.09 in 6.2 mi West 10.4 mph - N/A   Scattered Clouds
11:00 AM 66.2 °F 50.0 °F 56% 30.09 in 6.2 mi West 10.4 mph - N/A   Scattered Clouds
12:00 PM 68.0 °F 50.0 °F 52% 30.09 in 6.2 mi West 8.1 mph - N/A   Scattered Clouds
1:00 PM 69.8 °F 50.0 °F 49% 30.09 in 6.2 mi West 6.9 mph 18.4 mph N/A   Mostly Cloudy
2:00 PM 68.0 °F 50.0 °F 52% 30.09 in 6.2 mi West 9.2 mph - N/A   Mostly Cloudy
3:00 PM 71.6 °F 50.0 °F 46% 30.06 in 6.2 mi West 11.5 mph - N/A   Mostly Cloudy
4:00 PM 71.6 °F 50.0 °F 46% 30.06 in 6.2 mi West 10.4 mph - N/A   Mostly Cloudy
5:00 PM 71.6 °F 51.8 °F 50% 30.04 in 6.2 mi West 11.5 mph - N/A   Mostly Cloudy
6:00 PM 71.6 °F 55.4 °F 57% 30.04 in 6.2 mi West 13.8 mph - N/A   Mostly Cloudy
7:00 PM 69.8 °F 53.6 °F 56% 30.04 in 6.2 mi West 11.5 mph - N/A   Scattered Clouds
8:00 PM 68.0 °F 53.6 °F 60% 30.04 in 6.2 mi West 11.5 mph - N/A   Scattered Clouds
9:00 PM 64.4 °F 55.4 °F 73% 30.06 in 6.2 mi West 12.7 mph - N/A   Scattered Clouds
10:00 PM 62.6 °F 55.4 °F 77% 30.06 in 6.2 mi West 5.8 mph - N/A   Scattered Clouds
11:00 PM 62.6 °F 53.6 °F 72% 30.06 in 6.2 mi West 5.8 mph - N/A   Scattered Clouds